Overview Statistics Trail Chart Weather Telemetry Raw packets
 

This is the latest recevied weather packets stored in our database for station/object N6HGA-1. If no packets are shown the sender has not sent any weather packets the latest 10 day(s).

<< 58 59 60 61 62 63 64 >>
Time Temp. Humidity Pressure Rain* Wind** Luminosity Snow
1788272927 16.11° C 46% - 0 mm - - -
1788272625 16.11° C 46% - 0 mm - - -
1788272325 15.56° C 47% - 0 mm - - -
1788272025 15° C 48% - 0 mm - - -
1788271724 15° C 48% - 0 mm - - -
1788271422 15° C 48% - 0 mm - - -
1788271122 14.44° C 47% - 0 mm - - -
1788270821 14.44° C 47% - 0 mm - - -
1788270218 15° C 45% - 0 mm - - -
1788269914 15° C 44% - 0 mm - - -
1788269614 15.56° C 43% - 0 mm - - -
1788269314 15.56° C 42% - 0 mm - - -
1788269014 15.56° C 41% - 0 mm - - -
1788268713 16.11° C 40% - 0 mm - - -
1788268413 16.11° C 40% - 0 mm - - -
1788268113 16.11° C 40% - 0 mm - - -
1788267812 16.11° C 39% - 0 mm - - -
1788267512 16.11° C 39% - 0 mm - - -
1788267212 16.67° C 36% - 0 mm - - -
1788266964 16.67° C 36% - 0 mm - - -
1788266910 16.67° C 36% - 0 mm - - -
1788266609 16.67° C 35% - 0 mm - - -
1788266309 16.67° C 35% - 0 mm - - -
1788265709 16.11° C 39% - 0 mm - - -
1788265408 16.11° C 38% - 0 mm - - -

* Rain since midnight (hover to see other rain measurements)
** Current wind speed in m/s (hover to see current wind gust speed)